Voltar ao catálogo

COSMOS 1607

AtivoMilitarLEO
NORAD 15378·PAYLOAD·🇷🇺 Russia

Lançado Oct 31, 1984 de Baikonur Cosmodrome

Loading…

Próximas Passagens (próximas 24 horas)

TLE

AtualizadoSource: Space-Track

Época: Sep 14, 2026, 05:19 UTC

1 15378U 84112A   26257.22152975 -.00000063  00000-0  23244-4 0  9994
2 15378  64.9917 190.7633 0054762 308.5133  51.1023 13.83714776117309

Acompanhe COSMOS 1607 em tempo real com AllMySat

Download on the App Store